• MPC Preparation (Info)

  • MPEC 2016-O14 : 2012 TC324

    The following Minor Planet Electronic Circular may be linked-to from your own Web pages, but must not otherwise be redistributed electronically.

    A form allowing access to any MPEC is at the bottom of this page.


    Read MPEC 2016-O13 Read MPEC 2016-O15


    M.P.E.C. 2016-O14                                Issued 2016 July 16, 03:01 UT
    
         The Minor Planet Electronic Circulars contain information on unusual
             minor planets and routine data on comets.  They are published
        on behalf of Division F of the International Astronomical Union by the
              Minor Planet Center, Smithsonian Astrophysical Observatory,
                              Cambridge, MA 02138, U.S.A.
    
                 Prepared using the Tamkin Foundation Computer Network
    
                                  MPC@CFA.HARVARD.EDU
                URL https://www.minorplanetcenter.net/    ISSN 1523-6714
    
                                      2012 TC324
    
    Observations:
         K12TW4C  C2010 10 30.35367 01 27 49.966-00 44 20.22         21.5 wLEO014F51
         K12TW4C  C2010 10 30.38199 01 27 49.812-00 44 20.82         21.8 wLEO014F51
         K12TW4C  C2010 10 30.39601 01 27 49.743-00 44 21.08         21.7 wLEO014F51
         K12TW4C  C2011 01 28.24145 01 25 07.369-00 40 56.64         22.2 wLEO014F51
         K12TW4C  C2011 01 28.25333 01 25 07.389-00 40 56.56         22.1 wLEO014F51
         K12TW4C  C2011 01 28.25883 01 25 07.409-00 40 56.55         21.9 wLEO014F51
         K12TW4C* C2012 10 07.50118 01 45 22.752+00 44 57.75         21.7 rLEO014F51
         K12TW4C  C2012 10 07.51277 01 45 22.692+00 44 57.37         22.0 rLEO014F51
         K12TW4C  C2012 10 07.52708 01 45 22.628+00 44 56.80         21.5 iLEO014F51
         K12TW4C  C2012 10 07.53982 01 45 22.559+00 44 56.49         21.4 iLEO014F51
         K12TW4C  C2012 10 17.39623 01 44 29.727+00 39 24.08         21.8 wLEO014F51
         K12TW4C  C2012 10 17.40962 01 44 29.657+00 39 23.79         21.7 wLEO014F51
         K12TW4C  C2012 10 17.42303 01 44 29.568+00 39 23.28         21.6 wLEO014F51
         K12TW4C  C2012 10 17.43656 01 44 29.505+00 39 22.95         21.6 wLEO014F51
         K12TW4C  C2012 11 06.29767 01 42 42.948+00 29 49.82         22.0 wLEO014F51
         K12TW4C  C2012 11 06.31263 01 42 42.861+00 29 49.53         22.4 wLEO014F51
         K12TW4C  C2012 11 06.32756 01 42 42.786+00 29 49.12         22.0 wLEO014F51
         K12TW4C  C2012 11 06.34249 01 42 42.704+00 29 48.89         21.9 wLEO014F51
         K12TW4C  C2013 10 27.35495 01 51 24.186+01 13 06.35         21.9 wLEO014F51
         K12TW4C  C2013 10 27.37056 01 51 24.069+01 13 05.70         22.1 wLEO014F51
         K12TW4C  C2013 10 27.38617 01 51 24.008+01 13 05.18         22.0 wLEO014F51
         K12TW4C  C2014 08 30.53967 02 03 31.846+02 23 26.23         22.0 wLEO014F51
         K12TW4C  C2014 08 30.55164 02 03 31.812+02 23 25.70         21.9 wLEO014F51
         K12TW4C  C2014 08 30.56355 02 03 31.789+02 23 25.52         22.0 wLEO014F51
         K12TW4C  C2014 08 30.57548 02 03 31.750+02 23 25.11         22.1 wLEO014F51
         K12TW4C  C2014 09 07.52232 02 03 09.034+02 19 23.17         21.4 iLEO014F51
         K12TW4C  C2014 09 07.54699 02 03 08.982+02 19 22.34         21.4 iLEO014F51
         K12TW4C  C2014 09 07.55935 02 03 08.938+02 19 21.92         21.3 iLEO014F51
         K12TW4C  C2014 09 18.47684 02 02 28.924+02 13 23.57         21.5 iLEO014F51
         K12TW4C  C2014 09 18.48803 02 02 28.879+02 13 23.12         21.6 iLEO014F51
         K12TW4C  C2014 09 18.49926 02 02 28.841+02 13 22.64         21.5 iLEO014F51
         K12TW4C  C2014 09 18.51057 02 02 28.788+02 13 22.44         21.2 iLEO014F51
         K12TW4C  C2014 11 10.35907 01 57 57.540+01 45 35.29         21.1 iLEO014F51
         K12TW4C  C2014 11 10.37110 01 57 57.464+01 45 34.68         21.2 iLEO014F51
         K12TW4C  C2014 11 10.38320 01 57 57.390+01 45 34.70         21.4 iLEO014F51
         K12TW4C  C2014 11 10.39529 01 57 57.332+01 45 34.35         21.2 iLEO014F51
         K12TW4C  C2014 11 11.41590 01 57 52.032+01 45 10.50         21.3 iLEO014F51
         K12TW4C  C2014 11 11.42811 01 57 51.963+01 45 10.18         21.2 iLEO014F51
         K12TW4C  C2014 11 11.44031 01 57 51.894+01 45 10.10         21.1 iLEO014F51
         K12TW4C  C2014 11 20.36979 01 57 07.324+01 42 07.20         21.8 wLEO014F51
         K12TW4C  C2014 11 20.38266 01 57 07.252+01 42 06.95         21.8 wLEO014F51
         K12TW4C  C2014 11 20.39554 01 57 07.190+01 42 06.77         21.8 wLEO014F51
         K12TW4C  C2014 11 20.40853 01 57 07.136+01 42 06.56         21.8 wLEO014F51
         K12TW4C  C2014 11 22.30883 01 56 58.164+01 41 33.56         22.1 wLEO014F51
         K12TW4C  C2014 11 22.32178 01 56 58.106+01 41 33.21         22.0 wLEO014F51
         K12TW4C  C2014 11 22.33467 01 56 58.049+01 41 33.26         22.1 wLEO014F51
         K12TW4C  C2014 11 22.34758 01 56 57.987+01 41 32.86         22.0 wLEO014F51
         K12TW4C  C2014 12 11.25862 01 55 42.394+01 38 13.05         21.9 wLEO014F51
         K12TW4C  C2014 12 11.27388 01 55 42.326+01 38 13.31         22.1 wLEO014F51
         K12TW4C  C2014 12 11.28538 01 55 42.296+01 38 13.01         22.0 wLEO014F51
         K12TW4C  C2014 12 11.29692 01 55 42.269+01 38 12.93         22.1 wLEO014F51
         K12TW4C  C2015 01 08.22629 01 54 51.181+01 40 57.95         22.2 wLEO014F51
         K12TW4C  C2015 01 08.23866 01 54 51.194+01 40 58.03         21.9 wLEO014F51
         K12TW4C  C2015 01 08.25104 01 54 51.181+01 40 58.42         22.2 wLEO014F51
         K12TW4C  C2015 01 08.26347 01 54 51.183+01 40 58.49         21.8 wLEO014F51
         K12TW4C  C2015 01 10.22365 01 54 50.788+01 41 30.75         22.1 wLEO014F51
         K12TW4C  C2015 01 10.23534 01 54 50.793+01 41 30.84         21.9 wLEO014F51
         K12TW4C  C2015 01 10.24693 01 54 50.783+01 41 31.28         22.0 wLEO014F51
         K12TW4C  C2015 01 10.25852 01 54 50.781+01 41 31.35         21.7 wLEO014F51
    
    Observer details:
    F51 Pan-STARRS 1, Haleakala.  Observers B. Gibson, T. Goggia, N. Primak,
        A. Schultz, M. Willman.  Measurers K. Chambers, S. Chastel, Y.-T. Chen,
        L. Denneau, H. Flewelling, M. Holman, M. Huber, R. Jedicke, M. Lackner,
        E. Lilly, H.-W. Lin, E. Magnier, M. Micheli, M. Payne, P. Veres,
        R. Wainscoat, C. Waters, R. Weryk.  1.8-m Ritchey-Chretien + CCD.
    
    Orbital elements:
    2012 TC324
    Epoch 2016 July 31.0 TT = JDT 2457600.5                 MPC
    M   0.56796              (2000.0)            P               Q
    n   0.00361003     Peri.  259.47506     +0.84347848     -0.52252008
    a  42.0851229      Node   131.89762     +0.53459697     +0.79392669
    e   0.1935962      Incl.    9.63388     +0.05244169     +0.31089093
    P 273              H    6.4           G   0.15           U   2
    Residuals in seconds of arc
    101030 F51  0.1-  0.2-    131027 F51  0.1+  0.0     141120 F51  0.0   0.1-
    101030 F51  0.1-  0.0     140830 F51  0.1-  0.1+    141120 F51  0.0   0.1-
    101030 F51  0.0   0.1+    140830 F51  0.1-  0.0     141120 F51  0.1+  0.0
    110128 F51  0.1+  0.3+    140830 F51  0.0   0.1+    141122 F51  0.0   0.1-
    110128 F51  0.0   0.0     140830 F51  0.1-  0.1+    141122 F51  0.0   0.2-
    110128 F51  0.0   0.1-    140907 F51  0.2-  0.1+    141122 F51  0.1+  0.0
    121007 F51  0.2-  0.0     140907 F51  0.2+  0.0     141122 F51  0.1+  0.1-
    121007 F51  0.2-  0.0     140907 F51  0.2+  0.0     141211 F51  0.0   0.0
    121007 F51  0.0   0.1-    140918 F51  0.1-  0.1+    141211 F51  0.3-  0.3+
    121007 F51  0.0   0.0     140918 F51  0.0   0.0     141211 F51  0.1-  0.0
    121017 F51  0.0   0.2-    140918 F51  0.1+  0.1-    141211 F51  0.0   0.0
    121017 F51  0.0   0.1-    140918 F51  0.0   0.1+    150108 F51  0.2-  0.2+
    121017 F51  0.2-  0.2-    141110 F51  0.2+  0.0     150108 F51  0.1+  0.0
    121017 F51  0.0   0.1-    141110 F51  0.0   0.3-    150108 F51  0.1-  0.2+
    121106 F51  0.2+  0.0     141110 F51  0.1-  0.0     150108 F51  0.1+  0.1+
    121106 F51  0.1+  0.1+    141110 F51  0.0   0.1-    150110 F51  0.1-  0.1+
    121106 F51  0.1+  0.0     141111 F51  0.1+  0.3-    150110 F51  0.0   0.0
    121106 F51  0.1+  0.2+    141111 F51  0.1+  0.3-    150110 F51  0.1-  0.2+
    131027 F51  0.2+  0.2+    141111 F51  0.0   0.1-    150110 F51  0.1-  0.1+
    131027 F51  0.2-  0.0     141120 F51  0.1+  0.1-
    
    Ephemeris:
    2012 TC324               a,e,i = 42.09, 0.19, 10                 q = 33.938
    Date    TT    R. A. (2000) Decl.     Delta      r     Elong.  Phase     V
    2016 06 16    02 16 39.4 +03 48 30  34.5476 33.9379    52.4     1.4    21.9
    ...
    2016 07 01    02 17 52.1 +03 51 04  34.3356 33.9380    66.2     1.6    21.9
    ...
    2016 07 09    02 18 22.6 +03 51 29  34.2113 33.9381    73.6     1.6    21.9
    ...
    2016 07 15    02 18 41.4 +03 51 21  34.1146 33.9381    79.2     1.7    21.9
    2016 07 16    02 18 44.1 +03 51 18  34.0983 33.9381    80.1     1.7    21.9
    2016 07 17    02 18 46.8 +03 51 13  34.0819 33.9381    81.0     1.7    21.9
    ...
    2016 07 23    02 19 00.5 +03 50 36  33.9830 33.9382    86.6     1.7    21.9
    ...
    2016 07 31    02 19 12.9 +03 49 13  33.8503 33.9382    94.1     1.7    21.9
    ...
    2016 08 15    02 19 17.1 +03 45 01  33.6070 33.9383   108.3     1.6    21.9
    
    A. U. Tomatic                (C) Copyright 2016 MPC           M.P.E.C. 2016-O14
    

    Read MPEC 2016-O13 Read MPEC 2016-O15


    MPEC number:

    Enter an MPEC number in one of the following forms:

    • 1997-B01 (the full form)
    • J97B01 (the packed version of the full form)
    • B01 (the abbreviated form)